Content
SEND FEEDBACK

Daily
Averages
Monthly
Summary
United States of America

CHICAGO, ILLINOIS


Home > North America > United States > Illinois
Elevation: 674 feet     Latitude: 41 59N     Longitude: 087 54W

WEATHER
 
SELECT A DAY
Number of Records: 194,730;   Date Range: 7/8/95 - 7/7/14
 
SHARE

PRINT THIS DATA

[ ← Previous Day ]
WEATHER ALMANAC - FEBRUARY 3, 2013
[ Next Day → ]
[ °C ]   °F
Weather ElementAverageHighLow
Temperature17.8 °F21.9 °F (2:52 pm)10.9 °F (3:52 am)
Dewpoint10.7 °F17.1 °F (11:52 pm)5 °F (3:52 am)
Humidity74.1 %89 % (11:52 pm)60 % (1:52 pm)
Barometer30.03 in30.09 in (8:52 pm)29.98 in (8:28 am)
Wind Speed8.9 mph17.3 mph (12:18 pm)
Wind Gust19.6 mph (10:30 am)
Weather ElementAverage
Visibility5.5 mi
Wind DirectionW (275.3 °)

Weather ElementTotal
Precipitation---
Heating Degree Days48.6 (Base 65)
Averaged from 34 records on February 3, 2013
WEATHER CONDITIONS BREAKOUT
WIND DIRECTION BREAKOUT
WEATHER BY HOUR - FEBRUARY 3, 2013
[ °C ]   °F
Local TimeTemperatureDewpointHumidityBarometerVisibilityWind DirectionWind SpeedGust SpeedPrecipitationEventsConditions
3:52 AM10.9 °F5.0 °F77 %30.00 in5.0 miWSW (250°)4.6 mph0.00 inSnowLight Snow
4:52 AM10.9 °F6.1 °F81 %29.99 in4.0 miWSW (250°)3.5 mph0.00 inHaze
6:52 AM12.9 °F7.0 °F77 %30.02 in9.0 miWest (260°)3.5 mphOvercast
7:52 AM12.9 °F8.1 °F81 %30.01 in8.0 miWSW (250°)4.6 mphOvercast
8:28 AM14.0 °F8.6 °F79 %29.98 in1.8 miWest (260°)4.6 mph0.00 inSnowLight Snow
8:40 AM14.0 °F10.4 °F86 %29.98 in1.2 miWest (260°)5.8 mph0.00 inSnowLight Snow
8:52 AM15.1 °F10.0 °F80 %30.02 in1.2 miWest (270°)8.1 mph0.00 inSnowLight Snow
9:21 AM15.8 °F10.4 °F79 %29.98 in1.5 miWNW (290°)8.1 mph0.00 inSnowLight Snow
9:34 AM15.8 °F10.4 °F79 %29.98 in2.0 miWest (280°)8.1 mph0.00 inSnowLight Snow
9:45 AM15.8 °F10.4 °F79 %29.98 in1.5 miWest (280°)9.2 mph0.00 inSnowLight Snow
9:52 AM17.1 °F12.0 °F81 %30.02 in2.0 miWest (280°)10.4 mph0.00 inSnowLight Snow
10:08 AM17.6 °F12.2 °F79 %29.98 in3.0 miWNW (300°)10.4 mph0.00 inSnowLight Snow
10:16 AM17.6 °F10.4 °F73 %29.99 in2.5 miWest (280°)11.5 mph0.00 inSnowLight Snow
10:30 AM17.6 °F10.4 °F73 %29.99 in2.5 miWNW (290°)15.0 mph19.6 mph0.00 inSnowLight Snow
10:52 AM18.0 °F10.9 °F74 %30.03 in4.0 miWNW (300°)10.4 mph0.00 inSnowLight Snow
11:28 AM19.4 °F10.4 °F68 %30.00 in9.0 miWNW (300°)15.0 mph19.6 mph0.00 inOvercast
11:52 AM19.9 °F10.0 °F65 %30.04 in8.0 miWNW (300°)16.1 mph0.00 inOvercast
12:18 PM19.4 °F10.4 °F68 %29.99 in10.0 miWest (280°)17.3 mphScattered Clouds
12:52 PM21.0 °F10.0 °F63 %30.04 in10.0 miWNW (300°)13.8 mphPartly Cloudy
1:52 PM21.0 °F9.0 °F60 %30.04 in10.0 miWNW (300°)16.1 mphClear
2:52 PM21.9 °F10.0 °F60 %30.06 in10.0 miWest (270°)12.7 mphPartly Cloudy
3:52 PM21.0 °F10.0 °F63 %30.06 in9.0 miWSW (240°)9.2 mphPartly Cloudy
4:52 PM19.9 °F8.1 °F60 %30.06 in10.0 miWest (280°)12.7 mph18.4 mphClear
5:52 PM19.0 °F8.1 °F62 %30.06 in10.0 miWest (280°)5.8 mphMostly Cloudy
6:52 PM19.9 °F10.0 °F65 %30.07 in10.0 miWest (270°)4.6 mphOvercast
7:52 PM19.9 °F10.0 °F65 %30.08 in10.0 miWest (270°)10.4 mphOvercast
8:52 PM19.9 °F10.0 °F65 %30.09 in10.0 miWest (280°)9.2 mphOvercast
9:52 PM19.9 °F10.0 °F65 %30.09 in10.0 miWest (270°)8.1 mphOvercast
10:48 PM19.4 °F15.8 °F86 %30.05 in2.5 miWest (280°)6.9 mph0.00 inSnowLight Snow
10:52 PM19.9 °F15.1 °F81 %30.08 in1.8 miWest (270°)5.8 mph0.00 inSnowLight Snow
11:24 PM19.4 °F15.8 °F86 %30.04 in1.0 miWest (270°)5.8 mph0.00 inSnowLight Snow
11:33 PM19.4 °F15.8 °F86 %30.04 in1.5 miWest (260°)4.6 mph0.00 inSnowLight Snow
11:42 PM19.4 °F15.8 °F86 %30.04 in2.0 miWest (280°)5.8 mph0.00 inSnowLight Snow
11:52 PM19.9 °F17.1 °F89 %30.07 in1.5 miWest (260°)3.5 mph0.00 inSnowLight Snow
Hourly data recorded from KPWK, located miles away from Chicago, Illinois







STORIES FROM OUR PARTNERS